Simultaneous Nadir Overpasses (SNOs) Predictions

Prediction of SNOs between LANDSAT-8 and METOP-B Satellite Orbit:

Table of predicted SNOs for the next 14.0 days since TLE Epoch: 2/27/2021
Index Date (LANDSAT-8) Time (LANDSAT-8) Lat,Lon (LANDSAT-8) SZA (LANDSAT-8 ) Date (METOP-B) Time (METOP-B) Lat,Lon (METOP-B) SZA (METOP-B ) Distance(km) Time Diff (sec)
1 02/28/2021 00:06:26 81.12,-142.01 90.76 02/28/2021 00:05:55 81.12,-142.06 90.74 0.93 31
2 02/28/2021 00:55:52 -81.14, 25.89 89.23 02/28/2021 00:56:35 -81.14, 25.79 89.22 1.64 43
3 03/02/2021 19:40:40 81.12, -75.62 89.69 03/02/2021 19:40:16 81.13, -75.54 89.70 1.52 24
4 03/02/2021 20:30:05 -81.16, 92.67 90.23 03/02/2021 20:30:55 -81.16, 92.70 90.21 0.75 50
5 03/05/2021 15:14:53 81.14, -8.91 88.67 03/05/2021 15:14:37 81.13, -9.05 88.64 2.46 16
6 03/05/2021 16:04:19 -81.16, 159.04 91.31 03/05/2021 16:05:16 -81.16, 159.20 91.27 2.80 57
7 03/08/2021 10:49:07 81.13, 57.39 87.57 03/08/2021 10:48:58 81.13, 57.44 87.57 0.77 9
8 03/08/2021 11:38:32 -81.15,-134.63 92.40 03/08/2021 11:39:37 -81.15,-134.69 92.38 1.11 65
9 03/11/2021 05:34:13 -80.60, -50.51 94.53 03/11/2021 05:32:59 -80.78, -51.09 94.45 22.24 74
10 03/11/2021 06:23:19 81.14, 124.03 86.52 03/11/2021 06:23:18 81.13, 123.90 86.50 2.38 1



Historial Predications of SNOs between LANDSAT-8 and METOP-B
